Location: Amsterdam
(30.7274°N, 84.4357°W)
Time: 08:25:22
(UTC+00:00)

Explorer 11/Cluster Stage 4 - Pass Details

Date: 16 February 2026
Orbit: 463 x 1175 km, 28.8° (Epoch: 12 March)

Event Time Altitude Azimuth Distance (km) Brightness Sun altitude
Rises 17:07:55 0° 210° (SSW) 2,956 10.0 45.8°
Reaches altitude 10° 17:11:50 10° 180° (S) 1,881 9.5 46.1°
Maximum altitude 17:13:28 12° 157° (SSE) 1,699 9.4 46.1°
Drops below altitude 10° 17:15:01 10° 134° (SE) 1,767 9.2 46.2°
Sets 17:18:24 0° 101° (ESE) 2,556 9.4 46.4°
